User: anonymous   Login
Location: Lussas
(44.6119°N, 4.4726°E)
Time: 14:58:06
(UTC+00:00)
Language:

Lacrosse 4 Rocket - Orbit

View from above orbital plane
View from above orbital plane
View from above satellite
View from above satellite

Ground track
Ground track

The orbit data is extracted from the following two-line orbital elements,

1 26474U 00047B   21128.77827269  .00000113  00000-0  20629-4 0  9994
2 26474  67.9935 260.0963 0057999 204.3588 155.4812 14.96139545127901
Epoch (UTC): 08 May 2021 18:40:42
Eccentricity: 0.0057999
inclination: 67.9935°
perigee height: 538 km
apogee height: 619 km
right ascension of ascending node: 260.0963°
argument of perigee: 204.3588°
revolutions per day: 14.96139545
mean anomaly at epoch: 155.4812°
orbit number at epoch: 12790

The dashed part of the orbit path shows where the satellite is in the earth's shadow,  

DLR